Volver al catálogo

COSMOS 2432

GLONASS

ActivoNavegaciónMEO
NORAD 32276·PAYLOAD·🇷🇺 Russia

Lanzado Oct 26, 2007 desde Baikonur Cosmodrome

Loading…

Próximos Pases (próximas 24 horas)

TLE

ActualizadoSource: Space-Track

Época: Sep 14, 2026, 15:36 UTC

1 32276U 07052B   26257.65060112 -.00000055  00000-0  00000+0 0  9997
2 32276  65.5369 313.0490 0008668 307.4509  78.0103  2.13103081146999

Sigue COSMOS 2432 en tiempo real con AllMySat

Download on the App Store